ONEWEB-0687

operational
NORAD ID: 61595 Int'l Des: 2024-188 Owner: ONEWEBE Country: UK Constellation: oneweb
LEOCIRCULARPOLARONEWEB_TYPE

关于 ONEWEB-0687

正在加载描述...

实时位置

正在加载3D地球...

即将过境

高度历史

Altitude vs Time

uPlot chart will show altitude changes over time

两行轨道根数

1 61595U 24188B 25251.50758263 .00000021 00000-0 20726-4 0 9994
2 61595 87.9029 61.9439 0002287 101.1356 259.0033 13.17651261 48806
Epoch: Sep 8, 2025 • Age: 16 hours

当前状态

高度 1196.8 km
速度 7.26 km/s
星下点 -2.97°S, 161.82°W
发射日期 Oct 20, 2024
运行时间 0.8 years
类型 internet

技术详情

分类 Payload
质量 148.00 kg
干质量 140.00 kg
总质量 148.00 kg
长度 1.30 m
直径 1.00 m
跨度 5.00 m
形状 Trapezoid+2 pan
制造商 ONEWUS
平台类型 ARROW
阶段状态 In Orbit
所有者/国家 ONEWEBE/UK

大型星座

Loading constellations...